| time (UTC) | temp F | wind direction | speed knots | gust knots | rain 1hr in | rain 24hr in | rain mn in | humidity % | barometer mb |
| 20260906130347 | 362 | 0.0 | 0.0 | 0.00 | 0.00 | 0.00 | 100 | 1007.2 | |
| 20260906123347 | 90 | 0.0 | 0.0 | 0.00 | 0.00 | 0.00 | 54 | 1007.4 | |
| 20260906120347 | 92 | 0.0 | 0.0 | 0.00 | 0.00 | 0.00 | 52 | 1007.3 | |
| 20260906110347 | 89 | 0.0 | 0.0 | 0.00 | 0.00 | 0.00 | 57 | 1007.8 | |
| 20260906103347 | 89 | 0.0 | 0.0 | 0.00 | 0.00 | 0.00 | 47 | 1007.8 | |
| 20260906100347 | 87 | 0.0 | 0.0 | 0.00 | 0.00 | 0.00 | 59 | 1008.0 | |
| 20260906093347 | 86 | 0.0 | 0.0 | 0.00 | 0.00 | 0.00 | 59 | 1008.2 | |
| 20260906090347 | 85 | 0.0 | 0.0 | 0.00 | 0.00 | 0.00 | 63 | 1007.8 | |
| 20260906083347 | 85 | 0.0 | 0.0 | 0.00 | 0.00 | 0.00 | 61 | 1007.8 | |
| 20260906080347 | 84 | 0.0 | 0.0 | 0.00 | 0.00 | 0.00 | 63 | 1007.9 | |
| 20260906073346 | 84 | 0.0 | 0.0 | 0.00 | 0.00 | 0.00 | 67 | 1008.1 | |
| 20260906070346 | 83 | 0.0 | 0.0 | 0.00 | 0.00 | 0.00 | 68 | 1008.3 | |
| 20260906063346 | 83 | 0.0 | 0.0 | 0.00 | 0.00 | 0.00 | 67 | 1008.3 | |
| 20260906053346 | 81 | 0.0 | 0.0 | 0.00 | 0.00 | 0.00 | 71 | 1007.6 | |
| 20260906050346 | 81 | 0.0 | 0.0 | 0.00 | 0.00 | 0.00 | 70 | 1007.5 | |
| 20260906043346 | 79 | 0.0 | 0.0 | 0.00 | 0.00 | 0.00 | 72 | 1007.5 | |
| 20260906033346 | 81 | 0.0 | 0.0 | 0.00 | 0.00 | 0.00 | 67 | 1007.3 | |
| 20260906023346 | 81 | 0.0 | 0.0 | 0.00 | 0.00 | 0.00 | 65 | 1007.1 | |
| 20260906020346 | 81 | 0.0 | 0.0 | 0.00 | 0.00 | 0.00 | 66 | 1006.9 | |
| 20260906010346 | 81 | 0.0 | 0.0 | 0.00 | 0.00 | 0.00 | 60 | 1006.8 | |
| 20260906003346 | 81 | 0.0 | 0.0 | 0.00 | 0.00 | 0.00 | 66 | 1006.8 | |
| 20260906000348 | 80 | 0.0 | 0.0 | 0.00 | 0.00 | 0.00 | 71 | 1006.8 | |
| 20260905233346 | 82 | 0.0 | 0.0 | 0.00 | 0.00 | 0.00 | 59 | 1006.8 | |
| 20260905230346 | 82 | 0.0 | 0.0 | 0.00 | 0.00 | 0.00 | 58 | 1006.9 | |
| 20260905223346 | 82 | 0.0 | 0.0 | 0.00 | 0.00 | 0.00 | 62 | 1007.0 | |
| 20260905220346 | 83 | 0.0 | 0.0 | 0.00 | 0.00 | 0.00 | 57 | 1007.3 | |
| 20260905213346 | 83 | 0.0 | 0.0 | 0.00 | 0.00 | 0.00 | 58 | 1007.5 | |
| 20260905210346 | 83 | 0.0 | 0.0 | 0.00 | 0.00 | 0.00 | 59 | 1007.6 | |
| 20260905200346 | 83 | 0.0 | 0.0 | 0.00 | 0.00 | 0.00 | 59 | 1007.7 | |
| 20260905190346 | 84 | 0.0 | 0.0 | 0.00 | 0.00 | 0.00 | 53 | 1007.8 | |
| 20260905183346 | 84 | 0.0 | 0.0 | 0.00 | 0.00 | 0.00 | 65 | 1007.9 | |
| 20260905180346 | 84 | 0.0 | 0.0 | 0.00 | 0.00 | 0.00 | 52 | 1007.9 | |
| 20260905173346 | 85 | 0.0 | 0.0 | 0.00 | 0.00 | 0.00 | 63 | 1007.8 | |
| 20260905170346 | 85 | 0.0 | 0.0 | 0.00 | 0.00 | 0.00 | 64 | 1007.6 | |
| 20260905160346 | 87 | 0.0 | 0.0 | 0.00 | 0.00 | 0.00 | 60 | 1007.0 | |
| 20260905153346 | 89 | 0.0 | 0.0 | 0.00 | 0.00 | 0.00 | 57 | 1007.0 | |
| 20260905150346 | 91 | 0.0 | 0.0 | 0.00 | 0.00 | 0.00 | 54 | 1006.9 | |
| 20260905143346 | 362 | 0.0 | 0.0 | 0.00 | 0.00 | 0.00 | 53 | 1006.9 | |
| 20260905140346 | 93 | 0.0 | 0.0 | 0.00 | 0.00 | 0.00 | 52 | 1006.8 |